25th August 2019 | Brisbane, QLD, Australia

The Sunday Mail Bridge to Brisbane Fun Run (2019)

Triple M 5km Teams

Pos Team Name # Members Team Time
1 BERT Squad 5km 10 01:18:16
2 Clo's Army 8 01:21:44
3 The Running Analysis Centre 5km 6 01:40:59
4 SU QLD Team Chappy 83 02:05:35
5 Pacers 2019 8 02:10:23
6 Churchie 8 02:12:23
7 CBA Sports Club 16 02:15:31
8 Queensland Police Service 56 02:15:47
9 McAuley College - #theREALmcauley 10 02:16:27
10 360 Gymnastics 17 02:17:44
11 TechnologyOne Marketing 8 02:18:14
12 Arrow Energy 14 02:18:38
13 Metagenics 34 02:19:03
14 Panthera Finance 22 02:19:39
15 AKD Caboolture 21 02:21:30
16 KINNECT 13 02:21:33
17 HR made me do it 13 02:21:36
18 Coles for Redkite 38 02:22:01
19 UD Trucks Australia 38 02:22:08
20 Team SAWMH 12 02:23:34
21 Powerful7 5 02:23:56
22 Royal Runners 9 02:23:56
23 Brain Injury Rehabilitation Service 15 02:24:33
24 TechPath 18 02:25:27
25 QSuper Group 10 02:26:11
26 Running Transcripts 24 02:26:31
27 Hatch 20 02:27:57
28 Team Sunday Mail 89 02:27:58
29 Transurban Queensland 28 02:28:37
30 Santos 16 02:28:48
31 Running Bulls 16 02:28:49
32 St Ollie's 8 02:28:57
33 Dept. of Housing and Public Works (QLD) 93 02:29:34
34 FitazFK Gym 10 02:30:37
35 Team Penske 35 02:30:50
36 Trumps 67 02:31:34
37 18.9m/s 8 02:31:38
38 Queensland Brain Institute (QBI), University of Qu 14 02:32:23
39 Help Enterprises Staff 16 02:33:46
40 Empired Entourage 9 02:34:26
41 Hutchies Brisbane 2019 12 02:34:43
42 Kleemann Elevators Australia 11 02:35:59
43 QUT Law Society 11 02:37:37
44 FoodbankPurplePeopleFeeders 23 02:37:38
45 Team Thompson 6 02:38:08
46 Cochlear 91 02:38:32
47 Century Yuasa Batteries 62 02:38:38
48 The Wesley Hospital 41 02:39:55
49 Redbank Plains Dental 20 02:40:57
50 Urbis 6 02:41:26
51 DRAGS Racers 5 02:41:43
52 Auto General 40 02:41:46
53 ERM Power Pty Ltd 8 02:41:52
54 QIC Social Club 15 02:43:33
55 APA 20 02:43:58
56 Mater Mates 9 02:45:26
57 Team Pancreas 17 02:48:46
58 TSS Runners 2019 16 02:49:06
59 Regis Aged Care 48 02:49:55
60 Team Spaceframe 34 02:49:56
61 Los correlones 6 02:50:11
62 Macquarie 10 02:50:41
63 Clayton Utz 17 02:52:06
64 Flight Centre 46 02:52:40
65 City Fertility - TEAM CHILL 20 02:53:00
66 Team ASG 15 02:53:04
67 Team Kedron-Wavell 11 02:53:44
68 AH Jackson & Co 7 02:53:52
69 Realestate.com.au QLD/NT 5 02:54:13
70 Anytime Fitness Aspley 5 02:55:28
71 Seabridge 9 02:56:04
72 Flu Fighters 7 02:56:30
73 RWC 5k Team 34 02:56:52
74 Cottee Parker Architects 11 02:58:09
75 F45-Capalaba 5 02:58:26
76 Team Pillow Talk 38 02:58:40
77 Brisbane International Japanese School 15 02:58:42
78 Team ADG 5 03:00:33
79 OPTOMS BAES (and their baes) 8 03:01:17
80 Just Floss It! 11 03:02:28
81 Robert Bird Group 7 03:05:38
82 North West Physiotherapy 13 03:06:02
83 Gilchrist Connell Brisbane 6 03:07:20
84 Ziesemer Paddock Runners 5 03:07:27
85 KPMG 17 03:08:17
86 Zeros Heroes 6 03:09:22
87 #TeamReachOut 12 03:09:42
88 Queensland Fire and Rescue 17 03:12:23
89 Perigon Group 7 03:12:42
90 ConocoPhillips 26 03:13:17
91 BMC Runners 11 03:13:36
92 Team Schlumberger 20 03:13:57
93 Luina Bio 5 03:14:12
94 Herbert Smith Freehills 16 03:14:16
95 Team MDQ 17 03:14:27
96 The Might Movement 5 03:15:31
97 Help Enterprises 34 03:15:36
98 Anytime Fitness Running Team 9 03:17:20
99 JumpFitTraining 7 03:17:54
100 Rugby League Central Queensland 8 03:18:46
101 #Teampossible 23 03:25:47
102 Glencore Technology 9 03:27:32
103 Team Guide Dogs - 2019 6 03:27:53
104 McHolland 5 03:27:55
105 Lions Club of Brisbane Chinese 5 03:28:04
106 St Vincent's Private Hospital 12 03:28:15
107 Don’t judge, remembering Bear 8 03:28:28
108 White Bear Foundation 13 03:28:56
109 PAH Neuro Nurses 5 03:29:39
110 Brisbane Northside Emergency 10 03:29:56
111 Shepherds Arms Children's Home 8 03:31:01
112 BDO Brisbane 13 03:32:22
113 Employsure 6 03:34:22
114 VIPTeampossible 5 03:35:18
115 Black Lion Martial Arts 5 03:35:57
116 AECOM Australia Pty Ltd 9 03:37:32
117 Archers the Strata Professionals 11 03:39:40
118 North West Physiotherapy Eatons Hill 7 03:39:57
119 Pitcher Partners 8 03:40:30
120 Petronas 6 03:41:58
121 Team Karuna 16 03:43:01
122 Brisbane South PHN 7 03:43:32
123 The Scholars Group 75 03:45:19
124 Team Unity 9 03:48:27
125 PanAust Limited 8 03:48:41
126 DHL GLOBAL FORWARDING 12 03:49:04
127 Team DSQ 15 03:49:05
128 H&T Brisbane 37 03:49:34
129 PA Foundation VIP Brain Tumour Research Team 15 03:51:17
130 ALDI Brendale Region 16 03:52:03
131 Deadly Runners 8 03:52:42
132 Team Minor 6 03:52:54
133 RPM 9 03:53:07
134 Sarina Russo Group 13 03:54:09
135 Run, you ALS! 5 03:54:17
136 Body Corporate Services Toowong 13 03:54:21
137 CG5 5 03:57:24
138 Grant Thornton Brisbane 6 03:57:37
139 The Whack Jobs 6 03:59:14
140 PSA Consulting 6 03:59:31
141 OccPhyz Warriors 9 04:00:28
142 Jindalee Complete Dental 6 04:00:37
143 McRoonStein 7 04:01:16
144 Gobi Desert Canoe Club 5 04:03:46
145 Herron Todd White 9 04:04:35
146 PetroChina International Investment 11 04:06:12
147 Team Tornado Turners 5 04:06:20
148 Fiu Flyers 9 04:07:49
149 Team SMEC 7 04:08:01
150 Team Roll Along 18 04:08:47
151 The Jalepeno Hotties 7 04:10:28
152 UniLodge Park Central 8 04:11:25
153 JSY 12 04:11:31
154 #TeamStroke 5 04:12:12
155 PwC Brisbane 7 04:16:07
156 Metagenics Family & Friends 18 04:16:17
157 Run for Hummingbird House 15 04:16:24
158 Team Fair Go 2 6 04:17:03
159 Etax Staff 12 04:17:50
160 Team Afford 45 04:18:06
161 Tealies Angels 30 04:18:33
162 Credit Sense Code Runners 8 04:22:08
163 Buchan 7 04:24:15
164 Active Kids Early Learning Centre 15 04:25:06
165 Lilley Place Clinical Psychology 17 04:26:32
166 Bears of Hope 16 04:28:05
167 Healthcare Australia 7 04:29:40
168 Veolia 8 04:30:54
169 RGC Team 10 04:31:45
170 Dy-Mark 18 04:34:03
171 Angel Runners 7 04:37:07
172 FCB Group 8 04:37:21
173 Fitstop Cornubia 6 04:39:18
174 Pulse Physio and Pilates 17 04:47:12
175 FITSTOP WYNNUM 7 04:48:21
176 The Wonder Team - Children's Hospital Foundation 7 04:49:02
177 WISE Employment 5 04:49:09
178 Mary MacKillop 11 04:49:31
179 Kathleen's Team 2 8 04:49:41
180 Ranbury Runners 7 04:49:49
181 House of the Undying 6 04:50:37
182 Team Sands 7 04:52:39
183 Team Sammy Milne 23 04:54:20
184 Burrito Bar Holmview 9 04:55:21
185 Let's Get Fiscal 10 04:55:49
186 St George Queensland 6 04:56:57
187 Carlie's angels 6 04:57:23
188 eDL 6 04:58:47
189 Michael Hill 10 05:00:12
190 Team Grace 27 05:00:26
191 Hanson CSC 12 05:02:25
192 Faith’s Legacy 5 05:06:11
193 Team EMS 18 05:06:15
194 Lendlease NextGen 5 05:07:40
195 Walking to Cure Brain Cancer 2019 5 05:11:40
196 For Aso 9 05:13:38
197 Childhood Cancer Support 9 05:16:47
198 MND and Me Foundation 14 05:17:52
199 NikStars 5krs 15 05:18:06
200 Running Royalty 24 05:18:45
201 Team Schrinner 16 05:19:19
202 Esfray 8 05:22:10
203 Greentree Angels 8 05:24:28
204 Team Angie - for Cure Brain Cancer Foundation 7 05:25:02
205 DBM Vircon 9 05:26:20
206 The Scholars Group- Ashmore 9 05:28:28
207 Women in Design and Construction 11 05:29:06
208 Wolf Pack 5 05:29:55
209 The Milk Run (ABA QLD Branch) 9 05:30:39
210 Team #DEB2020 10 05:37:43
211 WMR Runners for Research 7 05:42:52
212 Sth Qld & Coast 7 05:42:57
213 Holcim Customer Service 7 05:43:30
214 Remember When Team 9 05:48:33
215 Big Ass Fans 12 05:49:50
216 QInvest 5 05:51:11
217 Winkipops 6 05:52:11
218 The Young and The Breathless 7 05:55:06
219 Walk for DEBRA 14 05:56:35
220 Orange Sky Australia 17 05:59:19
221 Hexion Brisbane 7 06:00:24
222 The Sleep Walkers 6 06:00:28
223 TeamBRS 7 06:01:12
224 Strides Tribe 14 06:05:53
225 m3property 5 06:07:49
226 The Big Issue Vendors 10 06:08:13
227 Team Sporting Wheelies 6 06:30:23
228 NoLegs_NoWorries 15 06:33:26
229 Iced Vovos 6 06:39:23
230 Fantastic Families 6 06:40:43
231 3S Success Brisbane 8 07:12:57
- A.G. Coombs Group 2
- AAFP 4
- Achieve EP Brisbane 4
- Adeona 1
- 20Cube Logistics 1
- 12RND Morningside 4
- Blood, Sweat & Beers 1
- Ready, Steady, Snack! 5
- #doingitfordougie 3
- #TeamIBM 2
- Apollo Motorhome Holidays 2
- Ambrose Treacy College 4
- AEMO 2
- Affirm Body Fitness Team 1
- AgForce-Every Family Needs a Farmer 1
- Aido's Tornados 1
- Akzo Movers 4
- BiOMS QUT 3
- Better at running up a tab! 3
- Blitzfit Australia Chermside / Aspley 1
- Blue Hearts 3
- Blueprint Army 3
- Asahi Queensland 2
- Ausco Modular 5
- Azure Development Group 1
- Back to Work 1
- BackSpace 1
- BAM - Brisbane Active Mums 1
- Base Camp Hikers 2
- batyr 2
- BVN 5km or 10km 3
- Caltex Runners 2
- Canterbury College 2019 1
- Bulimba F45 6
- BrisCheetahs 2
- Brisbane Private Hospital 2
- Brisbane SES 5km Stretcher Carry 1
- BMI Willy Wonka Walkers 5
- Brisbane Girls Friendship Group 3
- Fearlss 4
- Facilities Fitness 1
- Freedom Flyers 2
- Fusion5 5
- Gadens 2
- GBST 2019 1
- Georgiou Gazelles 2
- FLSmidth 2
- Foot Locker AU #BreakRecords 2
- Endo All Stars 2
- EY BNE 1
- F45 Albion 4
- Eclipx Group 2
- Drake International 5
- Dumbledore's Army 5
- DLA Piper 2
- DonateLife Qld 3
- Dormer 3
- Cerner 1
- Clough 6
- Carter Newell Lawyers 1
- CBRE 6
- CDKL5 Team Ricky 1
- Chandler 5
- Channel 9 3
- CHC 2
- Creevey Russell 3
- Croods 2
- Cure Cancer 4
- DANII Foundation T1 Diabetes 4
- Dentons Bridge to Brisbane 3
- CPL VIP 3
- Coorparoo State School 5krs 3
- Core Health Coaching 2
- Colin Biggers and Paisley Foundation 1
- Commit Fit 3
- Compensation Partners Dream Team 6
- Concentrix 2
- Infrastructure Advisory Group 2
- Inspire Health Services 2
- IOOF 2
- IPN 3
- Jacobs 1
- JAs 2019 2
- JLU-SQ 1
- HWL Ebsworth 3
- Kaelus 2
- Kathleen's Team 1 2
- L3Harris Brisbane 3
- Lacey Quinn 1
- LandPartners 5
- Macpherson Kelley 5
- Lewis Family Fun Runners 4
- Kezzas Krew 3
- Mater Breast Unit 2
- Ma'di Community Association of Queensland 1
- Make-A-Wish Brisbane Branches 4
- Mamas Journeys 5
- High Flyers 4
- Hillbrook 4
- Hindu Swayamsevak Sangh 4
- Hitachi Rail STS Australia 4
- Holding Redlich Brisbane 4
- Honeyfields 5
- HONG KONG RUNNERS 2
- Groundjog day 2
- Guymer Bailey Architects 6
- Hall Chadwick QLD 1
- Happy CQampers 1
- HCMA 4
- Gold Coast Run Co 1
- Good Fun 2
- Good Price Pharmacy Warehouse 4
- Gray Puksand 4
- GRC Quantity Surveyors 2
- Green Machine 1
- one tmr 2
- Overunners 3
- Ozfits 1
- Optus Brisbane 3
- Monadelphous Movers & Shakers 2
- Monash IVF Group 5
- Moore Stephens (QLD & Northern NSW) 1
- Morgans 3
- Moulis Legal 2
- MS Free Future 4
- MS Queensland 5
- Myhealth Medical Brisbane 3
- Mylan 2
- Microba 3
- Miss Fit 1
- Max's Army 2
- Mazars QLD 2
- Mazars QLD (2) 4
- QCMHR 3
- QTU fit 2019 1
- Quinn & Scattini Lawyers 4
- RAWNRG FITNESS 1
- RDW Parts 2
- R U OK? 2
- Radio Lollipop 3
- Recharged Runners 1
- Redback Technologies 7
- Redpath Australia 11
- Puma Energy 4
- Pronto Software 2
- POPULOUS 2
- Power of Us 3
- Phoenix Opens 4
- Pink Flamingos 1
- Piper Alderman 3
- Park Run Super Best Friends Club 3
- PDT Road Runners 2
- Penguins 3
- TeamEWB 2
- Temple Run 4
- The 2500s 4
- Team TRI 4
- Team UNHCR 1
- Team Smart 2
- Team Rydges South Bank 1
- Team Lactalis 1
- Team Mater 3
- Team Nevaeh 4
- Team Million Metres for Melanoma 4
- The Brains Trust 4
- The Fraser Tribe 4
- Tucker and Cowen 4
- Turner & Townsend 1
- u&u Recruitment Partners 3
- WCG Team 1
- Wells Fargo 3
- Wesley Warriors 3
- Wesley Warriors Team Toby 2
- Vidot Fitness's Purple Warriors 3
- Vincents 1
- Vacenti 3
- The Smith-Clarke Rockets 2
- Tom Tom 3
- The Orange Army 3
- The Purple Try-hards 2
- The Legends 5
- the Lott - L & K 4
- The MERCYfuls 1
- Step into Life Graceville 2
- Running for Archie 2
- Running for Lew 1
- Team 10 does the Bridge to Brisbane 5
- Team Amnesty 3
- Suncorp Graduates 1
- TAE Aerospace 4
- TalentVine 2
- Tay Tay 2
- Team Antetokounmpo 3
- Team DTS 2
- Team ASRC - Run 4 Refugees 3
- Team Beyond Blue 5
- Team CFC ANCOP 2
- Team CGW 3
- Team Cubic 1
- Team Dementia Australia 3
- Team Everydayhero 1
- Team Fair Go 1 2
- Team Garcia 4
- Team Haywood 3
- Team Hendrik 2
- Team HLB 3
- Team K&L Gates 1
- RESULTS Brisbane 2
- Robert Half Brisbane 4
- Rochele Painting 3
- Rostron Carlyle Rojas Lawyers 4
- RUD Runners 1
- Run Down Under 4
- Sadikot 3
- Salazar 3
- Sanofi CHC 2
- Sauntering Savages 1
- Savills QLD 2
- Sedgman Pavement Pounders 4
- SEEK 2
- Seymour Whyte 2
- Shoebox Books BIN & NW 4
- Sia & Sia 5
- Silva family 4
- Silver Chef road runners 1
- SLR Consulting 1
- Sojitz 3
- Sole Sisters 3
- South32 Eagles 4
- Southern Queensland Rural Health 2
- SPASA Bridge to Brisbane 2
- Springfield Runners Group 1
- Vita Group 2
- Vitrinite 3
- WICET 4
- Wilkie Warriors 4
- William Buck QLD 4
- Wincsters 2
- Wink Lash Studio 5
- Wink Lash Studio 2 2
- Wolf Gang 3
- Woollam Constructions 2
- Work Rehab 7
- World Arts & Multi-Culture Inc. 4
- 2019 Team Protech 1
- Allens UQLS Running Club 1
- Aurecon5 2
- Brisbane Central State School Teachers 3
- Brisbane Social Run Club 1
- BUSSQ 1
- C2E Gutz and Butz 1
- Carina Leagues Triathlon Club 1
- Da Maxx 2
- Ecolab 1
- EML Payments 1 5
- EPRS 2
- Exercise? I thought you said Extra fries 2
- Fitstop Slacks Creek 1
- Forest Lake Runners 3
- Queensland Youth Parliament 1
- Team ACC 4
- Team End Youth Homelessness 1
- Team Schmierer 4
- The Running Project 1
- Good Times Running Club 1
- Got The Runs 1
- Hong Kong journalist 3
- Indro SHS 1
- Jackson 3
- Jones Squad 3
- Jumbo Interactive 1
- Knight Frank Brisbane 1
- Letsdoit 3
- S2C Professional Services 2
- SAP Australia 1
- SBF 2
- SERF Running 1
- St Hilliers 2
- McInnes Wilson Lawyers 1
- Moolies 1
- NDY runners 1
- Prost8 M8s 1
- PX Sole Mates 1
- Stantec 5km 1
- Team Dolly's Dream 3
- Team Donut 1
- Team Starlight 1
- Team TSI 1
- Thompson Estate Athletics Club 2
- Trilogy Funds 4
- VA POUND THE GROUND! 1
- APLNG 1
- Team Royals 4